User: anonymous
Location: Roanoke
(37.2710°N, 79.9420°W)
Time: 04:18:57
(UTC-04:00)
Language:

FENGYUN 3A - Orbit

View from above orbital plane
View from above orbital plane
View from above satellite
View from above satellite

Ground track
Ground track

The orbit data is extracted from the following two-line orbital elements,

1 32958U 08026A   14266.17838838  .00000072  00000-0  54337-4 0  3852
2 32958 098.5446 321.6632 0009068 296.6602 063.3642 14.19471537327741
Epoch (UTC): 23 September 2014 04:16:52
Eccentricity: 0.0009068
inclination: 98.5446°
perigee height: 820 km
apogee height: 833 km
right ascension of ascending node: 321.6632°
argument of perigee: 296.6602°
revolutions per day: 14.19471537
mean anomaly at epoch: 63.3642°
orbit number at epoch: 32774

The dashed part of the orbit path shows where the satellite is in the earth's shadow,  

DLR